Regional Weather Roundup
Issued by NWS

Home | Current Version | Previous Version | Graphics & Text | Print | Product List | Glossary On
Versions: 1 2 3 4 5 6 7 8 9 10 11 12 13 14 15 16 17 18 19 20 21 22 23 24 25 26 27 28
000
ASUS45 KBOU 111310
RWRCO

WEATHER ROUNDUP FOR COLORADO
NATIONAL WEATHER SERVICE DENVER/BOULDER CO
600 AM MST MON DEC 11 2017

NOTE: "FAIR" INDICATES FEW OR NO CLOUDS BELOW 12000 FEET WITH NO
SIGNIFICANT WEATHER AND/OR OBSTRUCTIONS TO VISIBILITY.

COZ001>005-013-030-031-111400-
...NORTHWEST COLORADO...

CITY           SKY/WX    TMP DP  RH WIND       PRES   REMARKS
CRAIG          FAIR       3  -2  79 W5        30.55S WCI  -6
HAYDEN         FAIR      16   6  65 E10       30.55R WCI   4
MEEKER         FAIR      11   2  67 N3        30.54S
RABBIT EARS PA FAIR      23   1  39 W12G20    30.53S WCI  12
STEAMBOAT SPGS FAIR      12   6  76 CALM      30.55S
WALDEN         FAIR       1  -4  78 CALM      30.52R
$$

COZ006>008-011-111400-
...WEST CENTRAL VALLEYS...

CITY           SKY/WX    TMP DP  RH WIND       PRES   REMARKS
GRAND JUNCTION FAIR      15   1  53 E7        30.54S WCI   5
MONTROSE       FAIR      15   0  51 S9        30.58S WCI   3
EAGLE          FAIR       4   1  88 CALM      30.67R
RIFLE          FAIR      15   2  56 SW5       30.58S WCI   8
DELTA          FAIR      17  -2  43 NE7       30.58S WCI   7
NUCLA          FAIR      16 -11  29 E7        30.56F WCI   6
$$

COZ017>023-064>068-111400-
...SOUTHWEST COLORADO...

CITY           SKY/WX    TMP DP  RH WIND       PRES   REMARKS
DURANGO        FAIR      13  -1  54 N8        30.49S WCI   2
CORTEZ         FAIR       5  -4  66 CALM      30.52S
PAGOSA SPRINGS FAIR      18  -3  39 CALM      30.50S
TELLURIDE      FAIR      27  -4  25 SE7       30.56S WCI  20
WOLF CREEK PAS FAIR      28 -11  17 NW9       30.63R WCI  20
$$

COZ009-010-012-014-032>034-037-058>063-111400-
...CENTRAL COLORADO...

CITY           SKY/WX    TMP DP  RH WIND       PRES   REMARKS
ASPEN          FAIR      13   1  59 S6        30.54F WCI   4
BUENA VISTA    FAIR      16  -3  44 E3        30.49S
COPPER MTN     NOT AVBL
BERTHOUD PASS  FAIR      19   9  63 NW32G39   30.51F WCI   0
COTTONWOOD PAS FAIR      41 -18   7 NW8G20    30.50S
GUNNISON       FAIR       2  -6  69 CALM      30.64R
KREMMLING      HAZE       1  -4  78 CALM      30.63F VSB 1/2
LEADVILLE      FAIR      17 -11  28 NE9       30.53S WCI   6
MONARCH PASS   FAIR      27 -17  14 W16       30.68R WCI  14
SALIDA         FAIR      24  -3  30 CALM      30.57R
SUNLIGHT       FAIR      28 -22  10 W5        30.62S WCI  23
WILKERSON PASS FAIR      30  -8  19 N15G30    30.53S WCI  19
$$

COZ069>075-111400-
...SAN LUIS VALLEY/SANGRE DE CRISTO MOUNTAINS...

CITY           SKY/WX    TMP DP  RH WIND       PRES   REMARKS
ALAMOSA        FAIR       0  -7  72 CALM      30.51R
DEL NORTE      FAIR      24  -9  23 W10       30.51R WCI  13
LA VETA PASS   FAIR      27 -11  18 SW16        N/A  WCI  14
SAGUACHE       FAIR      23  -9  23 NE6       30.51R WCI  16
$$

COZ035-036-038>040-111400-
...NORTHERN COLORADO FRONT RANGE...

CITY           SKY/WX    TMP DP  RH WIND       PRES   REMARKS
DENVER INTL AP FAIR      41  -6  13 SW13      30.29F
DMNS CITY PARK NOT AVBL
AURORA         CLEAR     35  -3  19 S13       30.31F WCI  26
FRONT RANGE AP FAIR      31   1  26 S9        30.31F WCI  23
ERIE MUNI ARPT FAIR      32   3  29 S7        30.33F WCI  26
BOULDER MUN AP FAIR      39   0  19 W3        30.27F
CENTENNIAL     FAIR      33   0  24 S9        30.32F WCI  25
BROOMFIELD     CLEAR     39  -2  17 SW6       30.29F
FORT COLLINS   FAIR      26  13  57 CALM      30.30R
LONGMONT       FAIR      23   8  52 CALM      30.30S
$$

COZ041-046-047-076>085-087-088-111400-
...PIKES PEAK/PALMER DIVIDE AND SOUTHERN FOOTHILLS...

CITY           SKY/WX    TMP DP  RH WIND       PRES   REMARKS
COLO. SPRINGS  FAIR      38  -6  15 N9        30.35R
A. F. ACADEMY  FAIR      25  -6  25 N9        30.36R WCI  15
SCHRIEVER AFB  FAIR      42  -8  12 N13       30.35R
CHEYENNE MTN   FAIR      48 -11   8 NW7       30.31R
ELLICOTT         N/A    N/A N/A N/A N8        30.34R
FALCON         FAIR      34 -10  14 NW6       30.37S WCI  29
FORT CARSON    FAIR      35  -2  20 NW13      30.33R WCI  26
LIMON          FAIR      14  -3  47 CALM      30.32S
MONUMENT HILL  FAIR      28  -6  22 SW5       30.38S WCI  23
CANON CITY     FAIR      43  -2  15 W28       30.35R
WALSENBURG     FAIR      45  -4  13 W17G24    30.35S
TRINIDAD       FAIR      33   2  26 W15       30.35R WCI  23
$$

COZ042>045-048>051-090-091-111400-
...NORTHEAST COLORADO...

CITY           SKY/WX    TMP DP  RH WIND       PRES   REMARKS
GREELEY ARPT   FAIR      13   5  70 VRB3      30.31S
AKRON          FAIR      29   0  28 NW12      30.28S WCI  19
BURLINGTON     FAIR      27   3  35 NW12      30.28R WCI  17
WRAY           FAIR      34   5  29 W9        30.26S WCI  26
YUMA           FAIR      30   3  31 W13       30.27R WCI  20
STERLING       FAIR      18   7  62 S5        30.29R WCI  11
HOLYOKE        FAIR      36   9  32 W8        30.25S
FORT MORGAN    FAIR      19   2  47 W10       30.30S WCI   8
$$

COZ086-089-092>099-111400-
...SOUTHEAST COLORADO...

CITY           SKY/WX    TMP DP  RH WIND       PRES   REMARKS
PUEBLO         FAIR      20   1  43 W8        30.33R WCI  10
LA JUNTA       FAIR      27   3  35 W15       30.32R WCI  15
LAMAR          FAIR      19   4  51 SW10      30.29S WCI   7
SPRINGFIELD      N/A     30   3  31 NW13      30.28R WCI  20
$$




USA.gov is the U.S. government's official web portal to all federal, state and local government web resources and services.